Home   Weather   Stoke-on-Trent   Past weeks

Flag for United Kingdom Past Weather in Stoke-on-Trent, England, United Kingdom — Yesterday and Last 2 Weeks

46 °F

Passing clouds.

Feels Like: 42 °F
Forecast: 45 / 52 °F
Wind: 9 mph from Northeast

Location: Manchester Airport

Current Time: Oct 23, 2016 at 11:10:31 PM

Latest Report: Oct 23, 2016 at 10:20 PM

Visibility: N/A

Pressure: 29.95 "Hg

Humidity: 87%

Dew Point: 43 °F

Location of Stoke-on-TrentLocation

Past Weather in Stoke-on-Trent — Graph


Stoke-on-Trent Temperature Yesterday

Maximum temperature yesterday: 55 °F (at 2:20 PM)
Minimum temperature yesterday: 37 °F (at 2:50 AM)
Average temperature yesterday: 45 °F

High & Low Weather Summary for the Past Weeks

High59 °F (Oct 12, 12:20 PM)100% (Oct 11, 2:50 AM)30.45 "Hg (Oct 11, 2:50 AM)
Low36 °F (Oct 23, 2:20 AM)55% (Oct 9, 1:50 PM)29.62 "Hg (Oct 15, 6:20 AM)
Average50 °F83%30.07 "Hg
* Reported Oct 8 9:20 PM — Oct 23 9:50 PM, Stoke-on-Trent, Weather by CustomWeather, © 2016

Note: Actual official high and low records may vary slightly from our data, if they occured in-between our weather recording intervals... More about our weather records


Stoke-on-Trent Weather History for the Previous 24 Hours

Scroll right to see more
Time TempWeatherWind HumidityBarometerVisibility
9:50 PM
Sun, Oct 23
45 °FPassing clouds.9 mph87%29.95 "HgN/A
9:20 PM45 °FPassing clouds.9 mph87%29.92 "HgN/A
8:50 PM45 °FClear.9 mph87%29.92 "Hg10 mi
8:20 PM45 °FPassing clouds.8 mph87%29.92 "HgN/A
7:50 PM46 °FPassing clouds.10 mph82%29.92 "HgN/A
7:20 PM46 °FPassing clouds.9 mph87%29.92 "HgN/A
6:50 PM46 °FPassing clouds.10 mph82%29.92 "HgN/A
6:20 PM48 °FPassing clouds.9 mph76%29.92 "HgN/A
5:50 PM50 °FPartly sunny.12 mph76%29.92 "HgN/A
5:20 PM48 °FPartly sunny.7 mph76%29.92 "HgN/A
4:50 PM50 °FPartly sunny.10 mph71%29.92 "HgN/A
4:20 PM52 °FBroken clouds.13 mph67%29.92 "HgN/A
3:50 PM52 °FPassing clouds.14 mph67%29.92 "HgN/A
3:20 PM52 °FBroken clouds.14 mph67%29.92 "HgN/A
2:50 PM52 °FPartly sunny.16 mph67%29.92 "HgN/A
2:20 PM52 °FPassing clouds.14 mph67%29.92 "HgN/A
1:50 PM52 °FBroken clouds.17 mph62%29.95 "HgN/A
1:20 PM52 °FBroken clouds.14 mph67%29.95 "HgN/A
12:50 PM50 °FPartly sunny.14 mph71%29.95 "HgN/A
12:20 PM50 °FScattered clouds.14 mph71%29.98 "HgN/A
11:50 AM48 °FPassing clouds.15 mph76%29.98 "HgN/A
11:20 AM50 °FPassing clouds.14 mph71%29.98 "HgN/A
10:50 AM50 °FPassing clouds.18 mph71%29.98 "HgN/A
10:20 AM48 °FPassing clouds.17 mph76%29.98 "HgN/A
9:50 AM48 °FPassing clouds.14 mph82%29.98 "HgN/A
9:20 AM46 °FPassing clouds.12 mph87%29.98 "HgN/A
8:50 AM46 °FPassing clouds.12 mph87%29.98 "HgN/A
8:20 AM46 °FPassing clouds.13 mph82%29.98 "HgN/A
7:50 AM48 °FPassing clouds.13 mph82%29.98 "HgN/A
7:20 AM46 °FPartly cloudy.12 mph87%29.98 "HgN/A
6:50 AM48 °FLight rain. Partly cloudy.13 mph87%29.98 "HgN/A
6:20 AM46 °FPartly cloudy.10 mph93%29.98 "HgN/A
5:50 AM46 °FPartly cloudy.10 mph93%29.98 "HgN/A
5:20 AM46 °FPassing clouds.9 mph93%29.98 "HgN/A
4:50 AM45 °FPassing clouds.10 mph93%29.98 "HgN/A
4:20 AM41 °FPassing clouds.8 mph100%29.98 "HgN/A
3:50 AM39 °FPassing clouds.6 mph100%29.98 "HgN/A
3:20 AM37 °FPassing clouds.No wind93%29.98 "HgN/A
2:50 AM39 °FClear.7 mph93%29.98 "Hg10 mi
2:20 AM36 °FClear.2 mph93%29.98 "Hg10 mi
1:50 AM37 °FPartly cloudy.3 mph100%30.01 "HgN/A
1:20 AM37 °FPassing clouds.2 mph93%30.01 "HgN/A
12:50 AM39 °FPassing clouds.5 mph100%30.01 "HgN/A
12:20 AM37 °FClear.No wind93%30.01 "Hg10 mi
11:50 PM
Sat, Oct 22
41 °FClear.No wind100%30.01 "Hg10 mi
11:20 PM39 °FClear.No wind93%30.01 "Hg10 mi
Weather by CustomWeather, © 2016

See weather overviewHow to use our weather pages